Location: Newark
(13.8117°N, 3.6025°W)
Time: 08:18:39
(UTC+00:00)

Courier 1B - Pass Details

Date: 26 August 2019
Orbit: 962 x 1209 km, 28.3° (Epoch: 17 October)

Event Time Altitude Azimuth Distance (km) Brightness Sun altitude
Rises 21:15:52 0° 301° (WNW) 3,678 11.4 -39.2°
Reaches altitude 10° 21:18:38 10° 306° (NW) 2,709 10.5 -39.8°
Enters shadow 21:21:47 29° 320° (NW) 1,694 9.1 -40.5°
